{"data":{"norad_id":65329,"intl_designator":"2025-189G","name":"STARLINK-34908","alt_names":[],"object_type":"PAYLOAD","status":"ACTIVE","operator":null,"country":"US","launch_date":"2025-08-27","launch_site_code":"AFETR","launch_vehicle":null,"mission":null,"orbit_class":"UNKNOWN","rcs_meters":null,"size_class":null,"mass_kg":null,"dimensions":null,"purposes":["comms"],"wikipedia_slug":null,"has_3d_model":false,"image_url":null,"decayed_at":null,"tle_current":{"epoch":"2026-05-25T03:39:02.251296Z","epoch_age_seconds":58042,"freshness":"FRESH","line1":"1 65329U 25189G   26145.15210939  .00011334  00000+0  39416-3 0  9995","line2":"2 65329  53.1578 211.5740 0001177  84.9071 275.2064 15.30204624 42819","mean_motion":15.30204624,"eccentricity":0.0001177,"inclination_deg":53.1578,"raan_deg":211.574,"arg_perigee_deg":84.9071,"mean_anomaly_deg":275.2064,"bstar":0.00039416,"rev_number":4281,"period_min":94.105061337208,"perigee_km":474.39462511002,"apogee_km":476.00790093713,"semimajor_km":6853.3382630236,"source":"CELESTRAK","updated_at":"2026-05-25T13:38:20.759176Z"}}}